Helicity
90 74 75 58 58 44 36 50 54 52 32 45 56 61 60 66 55 46 48 83 85 93 77 99 95 110 143 80 130 147 159 180
52 57 36 33 32 40 44 44 44 53 39 42 35 44 79 111 79 88 68 118 89 131 157 68 181 96 101 107 117 121 160 196
51 48 42 43 46 53 54 46 41 42 38 39 48 44 28 40 67 60 54 66 39 136 114 149 101 113 92 114 122 143 129 125
38 42 37 42 39 65 67 57 60 65 73 76 77 83 89 87 79 87 86 87 119 129 193 177 173 209 208 196 148 90 124 136
22 36 49 54 56 77 75 70 63 63 90 99 106 117 103 109 109 105 133 150 207 293 309 262 183 185 198 192 173 150 125 116
43 52 53 39 60 94 85 73 62 79 96 123 165 137 132 138 148 172 175 177 178 164 159 163 170 182 190 168 167 190 189 113
43 51 56 65 68 84 68 68 81 98 101 113 179 189 125 111 115 131 130 144 163 201 213 194 201 242 205 169 174 150 112 73
43 58 56 60 67 75 77 78 85 118 137 164 172 146 150 144 141 150 151 142 159 196 227 274 260 236 236 189 152 183 199 161
53 59 58 62 75 72 72 71 96 99 132 180 174 189 178 172 166 121 117 157 191 212 197 206 212 221 205 157 92 106 155 209
51 53 67 61 77 70 82 69 100 128 120 125 113 157 136 119 105 120 145 158 157 138 118 117 130 148 165 169 120 78 101 123
49 45 62 62 68 73 88 96 137 116 100 82 93 104 113 107 119 114 104 112 124 136 102 81 72 83 89 111 121 117 109 99
39 41 58 57 65 75 96 108 97 102 85 75 95 108 94 115 93 85 99 121 131 112 100 98 87 89 81 71 84 98 108 108
36 42 49 52 64 74 94 94 121 122 102 86 68 89 97 77 78 73 94 91 93 74 58 50 57 57 61 65 70 76 87 90
38 36 36 46 63 83 80 91 139 115 103 101 84 87 78 62 61 65 79 78 74 51 34 31 46 37 47 48 52 48 50 72
28 27 32 45 60 79 77 88 115 109 108 101 92 131 89 77 49 59 61 71 61 62 46 33 28 34 41 41 27 31 42 56
21 26 32 41 57 78 81 91 118 144 102 83 126 129 102 85 58 67 58 73 61 61 66 49 34 23 28 38 28 17 27 48
18 20 26 39 48 94 95 102 110 112 99 92 137 150 136 81 103 74 65 73 63 51 50 50 39 32 13 -4 2 -11 17 37
15 10 29 40 55 114 99 108 96 107 109 101 126 152 152 129 100 89 69 60 53 30 39 41 30 12 -5 12 7 -12 13 25
6 16 30 43 57 92 91 101 105 80 82 148 107 128 146 132 119 99 85 64 62 43 46 35 27 20 0 4 10 0 -2 12
Wind_Speed
38 38 41 43 42 41 41 37 35 33 24 19 22 22 35 45 46 52 51 43 40 55 61 53 58 65 61 55 52 53 52 61
35 38 37 39 39 40 39 38 40 36 31 32 29 31 31 28 39 47 51 55 51 50 42 58 49 56 57 61 61 62 63 61
40 42 41 39 39 35 37 37 37 39 41 45 50 50 46 51 59 66 69 69 66 61 68 64 66 59 55 56 56 59 59 51
40 42 43 45 45 46 47 48 49 51 56 55 53 51 47 45 50 54 54 58 62 62 57 63 70 73 76 76 70 65 72 69
43 47 50 48 44 47 46 50 51 50 55 52 50 53 47 48 53 58 67 68 69 71 72 70 70 72 75 77 77 79 77 79
47 49 46 43 49 53 51 51 51 55 57 57 55 56 58 60 64 69 71 72 71 69 69 69 71 71 72 75 80 85 83 82
49 49 49 50 50 51 49 49 56 62 65 62 61 58 57 58 63 65 65 65 66 67 68 66 68 71 73 77 81 83 82 85
50 54 56 53 52 52 52 52 53 66 71 66 61 57 60 61 61 64 69 68 69 72 75 75 75 73 72 75 80 83 85 87
54 57 56 56 56 56 56 56 58 62 69 71 64 59 57 58 60 63 68 70 75 78 79 79 78 78 79 77 78 81 82 83
59 59 58 56 57 57 58 58 58 66 68 63 55 56 56 60 64 67 69 73 72 73 74 79 80 83 82 77 78 78 75 81
60 62 58 56 57 58 62 68 64 61 69 58 54 56 58 65 66 66 65 63 67 68 71 70 69 69 69 73 77 77 77 74
62 62 58 55 55 57 64 69 64 63 63 59 57 59 58 66 63 62 59 58 54 58 52 57 58 64 68 64 67 71 73 73
61 61 58 57 56 58 69 64 65 62 58 57 58 61 63 64 64 61 60 52 50 43 33 41 49 52 58 62 67 68 70 72
61 62 61 59 57 62 69 65 65 62 57 57 57 60 65 66 64 58 56 47 47 42 37 31 39 50 52 57 62 65 66 70
62 63 61 58 59 64 66 64 63 64 59 57 57 63 65 66 59 58 54 47 43 39 39 31 25 27 41 52 60 61 62 64
64 64 62 61 60 63 67 62 61 63 59 56 58 62 65 64 59 57 52 52 44 39 35 31 26 20 28 42 59 64 61 58
64 64 64 63 64 64 66 61 61 60 60 57 57 60 65 60 60 55 52 52 48 41 37 34 27 23 26 52 49 58 60 53
64 65 63 64 64 62 69 60 58 59 61 60 58 59 65 60 57 56 54 48 47 44 41 38 34 30 22 51 51 54 55 53
63 62 62 62 62 62 69 64 62 58 62 62 60 61 64 62 58 54 53 47 45 39 40 39 34 33 30 33 38 38 50 52
Wind_Direction
14 12 8 5 5 5 4 7 5 3 2 348 338 328 324 318 312 308 307 305 301 300 298 293 293 293 291 288 288 286 286 287
15 8 7 6 6 3 2 360 355 355 350 345 338 331 325 319 315 309 305 305 300 300 293 299 292 293 291 290 287 285 283 284
10 9 8 6 2 4 359 355 350 346 340 334 330 327 323 320 315 310 308 306 305 303 302 301 298 291 286 286 285 285 285 283
12 8 4 0 359 356 354 351 347 341 335 332 330 327 324 320 318 315 313 312 310 308 303 300 297 294 290 288 287 282 283 282
8 2 358 1 5 0 359 354 351 347 341 338 335 330 325 323 320 317 314 310 307 306 303 299 296 294 290 287 284 282 280 280
6 2 4 7 2 359 360 357 354 349 343 340 336 330 325 324 321 317 314 311 309 305 302 299 297 295 292 289 285 280 279 278
4 4 4 2 3 3 3 1 355 348 343 340 338 336 332 327 326 323 320 319 316 313 309 303 298 295 294 291 287 282 279 276
4 359 359 2 5 4 4 2 359 353 346 344 343 342 338 335 332 329 326 322 318 314 310 305 301 296 293 291 287 285 280 276
0 357 0 3 2 3 2 2 0 358 353 346 346 347 345 341 339 334 329 324 319 315 311 305 300 296 294 290 287 284 280 276
354 356 1 4 4 5 4 3 3 358 355 354 355 354 350 345 340 336 332 329 324 319 312 307 300 295 292 290 286 284 281 273
353 353 3 6 6 6 4 3 3 4 359 1 0 357 352 348 345 341 338 336 333 329 320 314 309 303 297 292 287 283 279 277
348 354 5 10 11 11 7 4 7 5 5 3 1 358 354 352 350 348 347 345 347 343 336 327 319 311 303 297 292 285 279 275
350 357 6 10 13 13 8 10 10 10 8 7 5 2 360 358 356 355 355 352 356 357 354 342 332 323 313 300 292 286 279 272
352 358 4 10 14 12 10 13 13 12 12 10 9 7 6 3 2 1 2 360 0 2 360 352 343 330 325 313 297 286 278 270
349 356 4 11 13 12 12 13 15 13 14 13 12 11 9 8 7 6 7 9 5 3 360 355 347 342 334 321 298 287 278 269
347 357 5 9 11 12 13 15 16 16 15 15 14 13 12 11 10 8 7 6 4 3 4 4 3 358 347 332 302 281 274 267
350 358 3 8 10 13 14 16 15 16 15 15 15 15 14 13 13 11 8 7 7 8 9 13 15 18 5 279 240 241 260 264
351 357 5 7 12 15 14 16 16 17 16 16 16 16 14 14 14 14 12 12 13 12 17 21 22 26 28 280 260 227 250 255
355 2 7 11 13 16 15 17 16 16 16 17 17 17 15 16 16 17 18 17 19 19 23 25 29 36 42 274 283 260 225 239